Location: Acts Church of Fort Worth
(32.6786°N, 97.2668°W)
Time: 15:34:54
(UTC+00:00)

Cosmos 1733 Rocket - Pass Details

Date: 18 January 2026
Orbit: 596 x 621 km, 82.5° (Epoch: 18 February)

Event Time Altitude Azimuth Distance (km) Brightness Sun altitude
Rises 01:32:06 0° 354° (N) 2,880 6.4 -21.7°
Reaches altitude 10° 01:34:20 10° 356° (N) 1,967 5.6 -22.1°
Maximum altitude 01:38:42 82° 82° (E) 617 2.8 -23.0°
Drops below altitude 10° 01:42:59 10° 172° (S) 1,939 5.6 -23.9°
Sets 01:45:11 0° 173° (S) 2,834 6.5 -24.4°
